Simultaneous Nadir Overpasses (SNOs) Predictions

Prediction of SNOs between NOAA-19 and METOP-C Satellite Orbit:

Table of predicted SNOs for the next 14.0 days since TLE Epoch: 6/21/2025
Index Date (NOAA-19) Time (NOAA-19) Lat,Lon (NOAA-19) SZA (NOAA-19 ) Date (METOP-C) Time (METOP-C) Lat,Lon (METOP-C) SZA (METOP-C ) Distance(km) Time Diff (sec)
1 06/24/2025 14:50:07 -80.58,-146.85 115.51 06/24/2025 14:51:10 -80.57,-146.75 115.46 1.85 63
2 06/24/2025 15:41:00 80.56, 20.79 64.55 06/24/2025 15:41:51 80.57, 20.69 64.57 2.00 51
3 06/24/2025 16:32:02 -80.56,-171.84 115.44 06/24/2025 16:32:31 -80.56,-171.90 115.42 1.18 29
4 06/24/2025 17:22:55 80.54, -4.20 64.62 06/24/2025 17:23:11 80.53, -4.12 64.65 1.56 16
5 06/24/2025 18:13:57 -80.53, 163.16 115.36 06/24/2025 18:13:51 -80.52, 163.29 115.35 2.44 6
6 06/24/2025 19:04:48 80.49, -28.86 64.75 06/24/2025 19:04:30 80.49, -28.93 64.73 1.50 18
7 06/24/2025 19:55:49 -80.46, 138.84 115.18 06/24/2025 19:55:09 -80.46, 138.80 115.22 0.60 40
8 06/24/2025 20:46:43 80.46, -53.86 64.83 06/24/2025 20:45:50 80.45, -53.75 64.81 2.06 53



Historial Predications of SNOs between NOAA-19 and METOP-C
